User: anonymous   Login
Location: Eymir
(36.7333°N, 29.7833°E)
Time: 18:41:26
(UTC+00:00)
Language:

CUTE 1.7 + AOD 2 - Orbit

View from above orbital plane
View from above orbital plane
View from above satellite
View from above satellite

Ground track
Ground track

The orbit is defined by the following mean orbital elements,

1 32785U          26137.48659419 +.00000000 +00000-0 +24117-3 0 00001
2 32785  97.8266 118.2778 0010361 126.7881 233.4299 15.09135694    08
Epoch (UTC): 17 May 2026 11:40:41
Eccentricity: 0.0010361
inclination: 97.8266°
perigee height: 532 km
apogee height: 546 km
right ascension of ascending node: 118.2778°
argument of perigee: 126.7881°
revolutions per day: 15.09135694
mean anomaly at epoch: 233.4299°

The dashed part of the orbit path shows where the satellite is in the earth's shadow,  

DLR